Preview of NWS' New Version of Forecast
This preview is not operational and should not be used for support decisions.

Regional Weather Roundup (RWR)

Issued by National Weather Service (NWS)

                            
000
ASUS46 KSEW 181610
RWRWA 

WASHINGTON REGIONAL WEATHER ROUNDUP
NATIONAL WEATHER SERVICE SEATTLE WA
900 AM PDT TUE JUN 18 2019

NOTE:"FAIR" INDICATES FEW OR NO CLOUDS BELOW 12,000 FEET WITH NO 
SIGNIFICANT WEATHER AND/OR OBSTRUCTIONS TO VISIBILITY.

WAZ507-509-555>559-181700-
SEATTLE, TACOMA, EVERETT, AND VICINITY
  
CITY           SKY/WX    TMP DP  RH WIND       PRES   REMARKS
EVERETT        CLOUDY    54  52  93 NE6       30.23S                  
BOEING FIELD   CLOUDY    59  53  80 NE7       30.23R                  
RENTON         CLOUDY    60  56  86 VRB3      30.22S FOG              
SEATAC AIRPORT DRZL/FOG  58  55  90 NE7       30.23R VSB 1            
JBLM-MCCHORD   CLOUDY    57  57 100 SW7       30.23S                  
PUYALLUP       PTSUNNY   57  57 100 CALM      30.24R FOG              
BREMERTON      LGT RAIN  57  55  94 S3        30.23R FOG              
JBLM-FT LEWIS  CLOUDY    58  58  99 S8        30.22R                  
TACOMA NARROWS FOG       55  55 100 W5        30.23R VSB 1            
$$
 
WAZ001-503-506-510-514-515-181700-
NORTH INTERIOR
  
CITY           SKY/WX    TMP DP  RH WIND       PRES   REMARKS
BELLINGHAM     SUNNY     59  52  77 S12G17    30.18R                  
FRIDAY HARBOR  PTSUNNY   64  51  62 SW9       30.20R                  
EASTSOUND      CLOUDY    63  54  72 S7        30.18R                  
PORT ANGELES   SUNNY     57  51  80 W13G20    30.24R                  
EDIZ HOOK      FAIR      55  51  85 W14       30.23R                  
PORT TOWNSEND  PTSUNNY   61  52  72 W12       30.20F                  
NAS WHIDBEY    PTSUNNY   60  51  72 W8        30.25R                  
ARLINGTON      CLOUDY    59  51  75 N5        30.23F                  
BURLINGTON     CLOUDY    57  55  94 SW7       30.21R                  
$$
 
WAZ020-022-039-040-504-511-512-181700-
SOUTHWEST INTERIOR
  
CITY           SKY/WX    TMP DP  RH WIND       PRES   REMARKS
SHELTON        CLOUDY    57  52  83 SW6       30.20R                  
OLYMPIA        CLOUDY    57  50  77 SW8       30.22S                  
CHEHALIS       CLOUDY    59  52  77 VRB5      30.25S                  
KELSO          CLOUDY    59  51  75 W9        30.27R                  
VANCOUVER      CLOUDY    62  52  69 N5        30.24S                  
SCAPPOOSE, OR  CLOUDY    62  52  69 W10       30.24R                  
PORTLAND, OR   PTSUNNY   63  52  67 N6        30.24S                  
$$
 
WAZ021-516-517-181700-
WASHINGTON COAST
  
CITY           SKY/WX    TMP DP  RH WIND       PRES   REMARKS
FORKS          PTSUNNY   56  51  84 W10       30.27R                  
HOQUIAM        MOSUNNY   59  50  72 W18G25    30.25S                  
ASTORIA, OR    CLOUDY    57  50  77 NW9       30.28S                  
$$
 
WAZ019-023-024-040-567>569-181700-
CASCADE MOUNTAINS AND COLUMBIA GORGE
  
CITY           SKY/WX    TMP DP  RH WIND       PRES   REMARKS
STAMPEDE PASS  PTSUNNY   52  48  86 W8G20     30.19R                  
TROUTDALE, OR  CLOUDY    65  52  62 NW6       30.23F                  
HOOD RIVER, OR MOSUNNY   64  52  63 NW15G26   30.13R                  
THE DALLES, OR SUNNY     68  53  58 NW22G29   30.09R                  
$$

WAZ026-027-041>044-520-521-181700-
EAST SLOPES
  
CITY           SKY/WX    TMP DP  RH WIND       PRES   REMARKS
OMAK           SUNNY     77  44  30 N12       29.98R                  
WENATCHEE      SUNNY     75  42  30 W17       30.00S                  
ELLENSBURG     SUNNY     70  49  47 NW24G37   30.06R                  
YAKIMA         SUNNY     74  48  39 W5        30.04R                  
SUNNYSIDE ARPT SUNNY     75  55  49 SW7       30.02                   
YAKIMA TC        N/A     74  44  34 W17G23    30.03S                  
$$

WAZ028-034-035-181700-
COLUMBIA BASIN
  
CITY           SKY/WX    TMP DP  RH WIND       PRES   REMARKS
EPHRATA        SUNNY     78  43  28 W14       29.99R                  
MOSES LAKE     SUNNY     79  48  33 W12       29.99S                  
PASCO          SUNNY     79  51  37 SW13G18   30.02R                  
RICHLAND ARPT  SUNNY     78  52  40 SW13      30.01S                  
HERMISTON, OR  SUNNY     73  52  47 W16       30.05R                  
$$

WAZ036>038-181700-
NORTHEAST WASHINGTON
  
CITY           SKY/WX    TMP DP  RH WIND       PRES   REMARKS
SPOKANE GEIGER MOSUNNY   67  46  47 SW13      30.00R                  
SPOKANE FELTS  MOSUNNY   69  48  47 W8        30.00R                  
FAIRCHILD AFB  SUNNY     67  48  50 SW10      30.00R                  
COEURDALENE,ID SUNNY     67  50  54 S10       30.01R                  
DEER PARK      SUNNY     66  48  52 S8        30.00R                  
$$

WAZ029>033-181700-
SOUTHEAST WASHINGTON
  
CITY           SKY/WX    TMP DP  RH WIND       PRES   REMARKS
PULLMAN        SUNNY     68  50  52 SW15      30.06F                  
LEWISTON, ID   SUNNY     75  50  41 VRB5      30.01F                  
WALLA WALLA    SUNNY     72  49  44 S18       30.05S                  
PENDLETON, OR  SUNNY     72  50  45 W12       30.06F                  
$$